TimeEST,TemperatureF,Dew PointF,Humidity,Sea Level PressureIn,VisibilityMPH,Wind Direction,Wind SpeedMPH,Gust SpeedMPH,PrecipitationIn,Events,Conditions,WindDirDegrees,DateUTC
12:53 AM,77.0,73.9,90,29.98,7.0,SSE,6.9,-,N/A,,Scattered Clouds,150,2012-12-11 05:53:00
1:17 AM,77.0,73.4,89,29.97,7.0,SSE,9.2,-,N/A,,Mostly Cloudy,160,2012-12-11 06:17:00
1:48 AM,77.0,73.4,89,29.96,7.0,SSE,10.4,-,N/A,,Scattered Clouds,150,2012-12-11 06:48:00
1:53 AM,77.0,73.0,88,29.97,7.0,SSE,10.4,-,N/A,,Scattered Clouds,150,2012-12-11 06:53:00
2:47 AM,77.0,73.4,89,29.98,7.0,South,3.5,-,N/A,Thunderstorm,Mostly Cloudy,180,2012-12-11 07:47:00
2:48 AM,77.0,73.0,88,29.98,7.0,South,3.5,-,N/A,Thunderstorm,Mostly Cloudy,180,2012-12-11 07:48:00
2:56 AM,77.0,73.4,89,29.97,7.0,South,5.8,-,N/A,Thunderstorm,Mostly Cloudy,170,2012-12-11 07:56:00
3:22 AM,73.4,69.8,88,29.99,1.2,SW,13.8,28.8,0.08,Rain-Thunderstorm,Light Rain,230,2012-12-11 08:22:00
3:24 AM,71.6,68.0,88,29.99,0.5,SW,11.5,28.8,0.15,Fog-Rain-Thunderstorm,Heavy Rain,220,2012-12-11 08:24:00
3:34 AM,71.6,69.8,94,29.99,1.0,SW,8.1,-,0.21,Rain-Thunderstorm,Thunderstorms and Rain,230,2012-12-11 08:34:00
3:41 AM,71.6,69.8,94,29.99,2.0,WSW,6.9,-,0.21,Rain-Thunderstorm,Light Rain,250,2012-12-11 08:41:00
3:49 AM,71.6,69.8,94,29.99,6.0,West,8.1,-,0.22,Rain-Thunderstorm,Light Rain,270,2012-12-11 08:49:00
3:53 AM,71.1,69.1,93,29.99,1.5,WSW,6.9,-,0.26,Rain-Thunderstorm,Rain,240,2012-12-11 08:53:00
3:59 AM,71.6,69.8,94,29.99,1.0,WSW,8.1,-,0.02,Rain,Rain,250,2012-12-11 08:59:00
4:03 AM,71.6,69.8,94,29.99,2.5,WSW,6.9,-,0.02,Rain,Light Rain,240,2012-12-11 09:03:00
4:09 AM,71.6,69.8,94,29.98,0.8,SW,4.6,-,0.09,Rain,Heavy Rain,220,2012-12-11 09:09:00
4:19 AM,71.6,69.8,94,29.97,1.8,South,3.5,-,0.11,Rain,Light Rain,190,2012-12-11 09:19:00
4:26 AM,71.6,69.8,94,29.96,10.0,Calm,Calm,-,0.11,,Mostly Cloudy,0,2012-12-11 09:26:00
4:53 AM,70.0,69.1,97,29.97,10.0,Calm,Calm,-,0.11,,Clear,0,2012-12-11 09:53:00
5:53 AM,71.1,69.1,93,29.99,10.0,SE,4.6,-,N/A,,Partly Cloudy,140,2012-12-11 10:53:00
6:53 AM,71.1,70.0,96,29.98,10.0,South,4.6,-,N/A,,Clear,170,2012-12-11 11:53:00
7:53 AM,73.0,72.0,96,30.02,8.0,SSW,3.5,-,N/A,,Clear,200,2012-12-11 12:53:00
8:53 AM,77.0,75.0,94,30.02,7.0,South,5.8,-,N/A,,Clear,190,2012-12-11 13:53:00
9:53 AM,81.0,75.0,82,30.04,7.0,SSW,6.9,-,N/A,,Mostly Cloudy,210,2012-12-11 14:53:00
10:25 AM,82.4,75.2,79,30.05,7.0,South,6.9,-,N/A,,Mostly Cloudy,180,2012-12-11 15:25:00
10:36 AM,82.4,75.2,79,30.04,7.0,South,9.2,-,N/A,,Mostly Cloudy,190,2012-12-11 15:36:00
10:53 AM,82.0,73.9,76,30.05,7.0,South,5.8,-,N/A,,Mostly Cloudy,180,2012-12-11 15:53:00
11:16 AM,82.4,73.4,74,30.04,8.0,SSE,8.1,-,N/A,,Mostly Cloudy,160,2012-12-11 16:16:00
11:26 AM,82.4,73.4,74,30.04,7.0,South,5.8,-,N/A,,Mostly Cloudy,190,2012-12-11 16:26:00
11:53 AM,82.9,73.0,72,30.03,-9999.0,South,8.1,-,N/A,,Scattered Clouds,180,2012-12-11 16:53:00
12:50 PM,84.2,73.4,70,29.99,8.0,South,11.5,17.3,0.00,,Mostly Cloudy,170,2012-12-11 17:50:00
12:53 PM,84.9,75.0,72,29.99,8.0,SSE,12.7,-,0.00,,Mostly Cloudy,160,2012-12-11 17:53:00
1:14 PM,86.0,73.4,66,29.98,8.0,South,8.1,-,N/A,,Scattered Clouds,170,2012-12-11 18:14:00
1:53 PM,84.9,73.0,67,29.97,8.0,South,10.4,-,N/A,,Scattered Clouds,170,2012-12-11 18:53:00
2:53 PM,84.9,72.0,65,29.97,10.0,SSE,9.2,-,N/A,,Partly Cloudy,160,2012-12-11 19:53:00
3:53 PM,84.0,72.0,67,29.97,10.0,SSE,11.5,-,N/A,,Clear,150,2012-12-11 20:53:00
4:53 PM,81.0,72.0,74,29.97,10.0,South,8.1,-,N/A,,Clear,170,2012-12-11 21:53:00
5:53 PM,79.0,73.9,84,29.98,10.0,SSE,6.9,-,N/A,,Mostly Cloudy,150,2012-12-11 22:53:00
6:39 PM,78.8,73.4,83,29.99,10.0,SSE,10.4,-,N/A,,Mostly Cloudy,150,2012-12-11 23:39:00
6:46 PM,78.8,73.4,83,29.99,10.0,SSE,9.2,-,N/A,,Mostly Cloudy,160,2012-12-11 23:46:00
6:53 PM,78.1,73.9,87,29.99,10.0,SSE,9.2,-,N/A,,Overcast,160,2012-12-11 23:53:00
7:26 PM,78.8,73.4,83,30.00,10.0,SSE,9.2,-,N/A,,Scattered Clouds,160,2012-12-12 00:26:00
7:53 PM,78.1,73.9,87,30.01,10.0,SSE,8.1,-,N/A,,Clear,160,2012-12-12 00:53:00
8:53 PM,78.1,73.9,87,30.04,10.0,SSE,4.6,-,N/A,,Partly Cloudy,160,2012-12-12 01:53:00
9:53 PM,78.1,73.9,87,30.07,10.0,Calm,Calm,-,N/A,,Partly Cloudy,0,2012-12-12 02:53:00
10:26 PM,78.8,73.4,83,30.07,10.0,Calm,Calm,-,N/A,,Mostly Cloudy,0,2012-12-12 03:26:00
10:53 PM,77.0,73.9,90,30.07,10.0,SE,3.5,-,N/A,,Partly Cloudy,140,2012-12-12 03:53:00